This is the latest recevied weather packets stored in our database for station/object BV5AB-13. If no packets are shown the sender has not sent any weather packets the latest 10 day(s).
| Time | Temp. | Humidity | Pressure | Rain* | Wind** | Luminosity | Snow |
|---|---|---|---|---|---|---|---|
| 1777341424 | 27.78° C | 51% | 1003.5 hPa | 0 mm | - | - | - |
| 1777340823 | 27.78° C | 55% | 1003.5 hPa | 0 mm | - | - | - |
| 1777340224 | 27.22° C | 53% | 1003.5 hPa | 0 mm | - | - | - |
| 1777339624 | 27.22° C | 54% | 1003.6 hPa | 0 mm | - | - | - |
| 1777339024 | 26.67° C | 58% | 1003.7 hPa | 0 mm | - | - | - |
| 1777338423 | 26.11° C | 57% | 1003.8 hPa | 0 mm | - | - | - |
| 1777337824 | 25.56° C | 59% | 1003.8 hPa | 0 mm | - | - | - |
| 1777337224 | 25° C | 60% | 1003.8 hPa | 0 mm | - | - | - |
| 1777336623 | 25.56° C | 65% | 1003.7 hPa | 0 mm | - | - | - |
| 1777336023 | 25° C | 62% | 1003.7 hPa | 0 mm | - | - | - |
| 1777335424 | 24.44° C | 63% | 1003.8 hPa | 0 mm | - | - | - |
| 1777334823 | 24.44° C | 66% | 1003.8 hPa | 0 mm | - | - | - |
| 1777334224 | 23.89° C | 68% | 1003.6 hPa | 0 mm | - | - | - |
| 1777333623 | 23.89° C | 67% | 1003.7 hPa | 0 mm | - | - | - |
| 1777333025 | 23.33° C | 72% | 1003.6 hPa | 0 mm | - | - | - |
| 1777332424 | 22.78° C | 72% | 1003.4 hPa | 0 mm | - | - | - |
| 1777331823 | 22.78° C | 77% | 1003.4 hPa | 0 mm | - | - | - |
| 1777331223 | 22.78° C | 77% | 1003.1 hPa | 0 mm | - | - | - |
| 1777330624 | 22.22° C | 76% | 1003 hPa | 0 mm | - | - | - |
| 1777330024 | 21.67° C | 78% | 1002.9 hPa | 0 mm | - | - | - |
| 1777329424 | 21.67° C | 79% | 1002.8 hPa | 0 mm | - | - | - |
| 1777328823 | 21.67° C | 79% | 1002.7 hPa | 0 mm | - | - | - |
| 1777328224 | 21.67° C | 77% | 1002.6 hPa | 0 mm | - | - | - |
| 1777327624 | 21.67° C | 79% | 1002.6 hPa | 0 mm | - | - | - |
| 1777327024 | 21.11° C | 80% | 1002.7 hPa | 0 mm | - | - | - |
* Rain latest hour (hover to see other rain measurements)
** Current wind speed in m/s (hover to see current wind gust speed)